DELTA 1 DEB, 42573

Orbit data source: Space-Track

DELTA 1 DEB, 42573 is space debris in SSO originally from a launch on Tue, 06 Nov 1973 UTC launched from the Air Force Western Test Range (AFWTR). Debris objects in space refer to the collection of defunct objects orbiting the Earth. Examples of debris include non-operational satellites, rocket bodies, and fragments generated from explosions, collisions, or faulty payload assembly.

Loading next visibility...
Identifier
42573, 1973-086HM
Orbit
SSO
Country
Flag of USUS
Related business
Manufacturer
Unknown
Mission
Spacecraft
Bus & Motor
Unknown
Mass
Unknown
Launch date (UTC)
1973-11-06 (52 years ago)
Launch vehicle
Unknown
Launch site
Air Force Western Test Range (AFWTR)
Object type
Payload
Rocket body
Debris
Shape & HBR
Unknown shape, 1.1 m
Radar Cross Section
Small (<0.1 m²)

Expand to show TLE details & history
Last TLE update: 2 days ago

TLE from 2 days ago
0 DELTA 1 DEB
1 42573U 73086HM  25351.82531976  .00000214  00000-0  17852-2 0  9994
2 42573 101.9166  91.1618 0036509 334.7640 149.8844 12.46256302548807
Epoch: 2025-12-17T19:48Z
TLE epoch observation values (Epoch: 2025-12-17T19:48:27.627Z)
Latitude
53.50139°
Longitude
-96.15456°
Altitude
1,513.583 km
Speed
7.102 km/s
True Right ascension
19h 10m 36s
True Declination
53° 21' 09"
Sunlit
Object was in daylight at epoch
Visualization orbit readout
Latitude
Unknown
Longitude
Unknown
Altitude
Unknown
Speed
Unknown
Apparent Right ascension
Unknown
Apparent Declination
Unknown
Sunlit
N/A
Visualization observer readout
Local Sidereal Time
03:44:38
Azimuth
Unknown
Elevation
Unknown
Doppler factor
Unknown
Orbital elements
Apogee altitude
1,506.436 km
Perigee altitude
1,449.073 km
Semi-major axis
7,855.892 km
Eccentricity
0.00365
Inclination
101.9166°
RAAN
91.1618°
Arg. of periapsis
334.764°
True anomaly
150.09349°
Mean anomaly
149.8844°
Eccentric anomaly
149.98903°
Mean motion
3.11709 °/min
Orbital period
115.49 mins
BSTAR
0.0017852
Loading maneuver chart data...
Computing Atmospheric mass density...
Loading historical data...
Loading historical data...
Loading historical data...
Loading historical data...
Loading historical data...
Loading historical data...
Loading historical data...

Documentation

Showing up to 5 results
|